Flag for U.S.A. Weather past 2 weeks in Pensacola, Florida, U.S.A.

Now
67 °F

Sunny.


Feels Like: 67 °F
Forecast: 64 / 80 °F
Wind: 3 mph from Northwest

Location: Pensacola Regional Airport

Current Time: Apr 1, 2015 at 8:54:09 AM

Latest Report: Apr 1, 2015 at 7:53 AM


Visibility: 9 mi

Pressure: 30.12 "Hg

Humidity: 90%

Dew point: 64 °F

Location of PensacolaLocation

Historic Weather in Pensacola — Graph

°F

Pensacola temperature yesterday

Maximum temperature yesterday: 81 °F (at 12:53 PM)
Minimum temperature yesterday: 66 °F (at 5:53 AM)
Average temperature yesterday: 72 °F

Past Weeks' High & Low Weather Summary

 TemperatureHumidityPressure
High86 °F (Mar 17, 1:53 PM)100% (Mar 20, 4:53 AM)30.38 "Hg (Mar 20, 4:53 AM)
Low42 °F (Mar 28, 6:53 AM)26% (Mar 27, 2:53 PM)29.82 "Hg (Mar 26, 4:53 PM)
Average67 °F75%30.06 "Hg
* Reported Mar 17 7:53 AM — Apr 1 7:53 AM, Pensacola, Weather by CustomWeather, © 2015

Note: Actual official high and low records may vary slightly from our data, if they occured in-between our weather recording intervals... More about our weather records

Advertising

Pensacola weather history for previous 24 hours

 ConditionsComfort  
Time TempWeatherWind HumidityBarometerVisibility
7:53 AM
Wed, Apr 1
67 °FSunny.3 mph90%30.12 "Hg9 mi
6:53 AM62 °FPassing clouds.5 mph96%30.10 "Hg8 mi
5:53 AM62 °FClear.3 mph96%30.07 "Hg10 mi
4:53 AM65 °FClear.3 mph94%30.04 "Hg10 mi
3:53 AM66 °FClear.5 mph90%30.03 "Hg10 mi
2:53 AM67 °FClear.5 mph87%30.01 "Hg10 mi
1:53 AM68 °FClear.8 mph87%30.02 "Hg10 mi
12:53 AM69 °FClear.12 mph87%30.02 "Hg10 mi
11:53 PM
Tue, Mar 31
70 °FPassing clouds.12 mph84%30.04 "Hg10 mi
10:53 PM70 °FPassing clouds.9 mph84%30.06 "Hg10 mi
9:53 PM69 °FClear.9 mph87%30.07 "Hg10 mi
8:53 PM69 °FClear.12 mph90%30.06 "Hg10 mi
7:53 PM70 °FClear.13 mph81%30.03 "Hg10 mi
6:53 PM71 °FSunny.12 mph76%30.02 "Hg10 mi
5:53 PM75 °FSunny.18 mph62%30.01 "Hg10 mi
4:53 PM78 °FPassing clouds.21 mph56%30.01 "Hg10 mi
3:53 PM79 °FScattered clouds.18 mph52%30.03 "Hg10 mi
2:53 PM81 °FScattered clouds.20 mph47%30.05 "Hg10 mi
1:53 PM81 °FScattered clouds.17 mph47%30.07 "Hg10 mi
12:53 PM81 °FPartly sunny.18 mph47%30.10 "Hg10 mi
11:53 AM76 °FPartly sunny.13 mph56%30.14 "Hg10 mi
10:53 AM77 °FScattered clouds.17 mph60%30.15 "Hg10 mi
9:53 AM75 °FSunny.15 mph64%30.14 "Hg10 mi
8:53 AM71 °FSunny.14 mph76%30.14 "Hg10 mi
Weather by CustomWeather, © 2015

See weather overviewHow to use our weather pages